Fredericksburg, TX

2:32 PM CDT on September 28, 2016 (GMT -0500)
Fredericksburg

Weather History for KT82 - February, 2014

Change the Weather History Date:

Saturday, February 22, 2014

  Actual Average (KSAT) Record (KSAT)
Temperature  
Mean Temperature 58 °F 57 °F  
Max Temperature 71 °F 68 °F 93 °F (1996)
Min Temperature 46 °F 46 °F 26 °F (1978)
Degree Days  
Heating Degree Days 6 9  
Month to date heating degree days 234  
Since 1 July heating degree days 1252  
Cooling Degree Days 0 1  
Month to date cooling degree days 18  
Year to date cooling degree days 25  
Growing Degree Days 8 (Base 50)    
Moisture  
Dew Point 46 °F    
Average Humidity 65    
Maximum Humidity 85    
Minimum Humidity 30    
Precipitation  
Precipitation 0.00 in 0.06 in 1.30 in (1992)
Month to date precipitation 1.40  
Year to date precipitation 3.16  
Snow  
Snow 0.00 in - - ()
Month to date snowfall  
Since 1 July snowfall  
Snow Depth -    
Sea Level Pressure  
Sea Level Pressure 29.95 in    
Wind  
Wind Speed 8 mph (SSW)    
Max Wind Speed 17 mph    
Max Gust Speed 22 mph    
Visibility 10 miles    
Events      
T = Trace of Precipitation, MM = Missing Value Source: NWS Daily Summary

Daily Weather History Graph

Daily Weather History Graph

Search for Another Location

Airport or City:

Trip Planner

Search our weather history database for the weather conditions in past years. The results will help you decide how hot, cold, wet, or windy it might be!

Date:

Astronomy

Feb. 22, 2014 Rise Set
Actual Time 7:09 AM CST 6:29 PM CST
Civil Twilight 6:44 AM CST 6:53 PM CST
Nautical Twilight 6:16 AM CST 7:21 PM CST
Astronomical Twilight 5:49 AM CST 7:49 PM CST
Moon 12:56 AM CST (2/22) 11:52 AM CST (2/22)
Length of Visible Light 12h 09m
Length of Day
11h 20m
Waning Gibbous, 50% of the Moon is Illuminated
Feb 22
Waning Gibbous
Mar 1
New
Mar 8
First Quarter
Mar 16
Full
Mar 23
Last Quarter

Hourly Weather History & Observations

Time (CST) Temp. Dew Point Humidity Pressure Visibility Wind Dir Wind Speed Gust Speed Precip Events Conditions
12:15 AM 51.3 °F 21.2 °F 31% 30.01 in 10.0 mi South 6.9 mph - N/A   Clear
12:35 AM 50.5 °F 20.3 °F 30% 30.01 in 10.0 mi South 4.6 mph - N/A   Clear
12:55 AM 49.6 °F 20.1 °F 31% 30.01 in 10.0 mi South 4.6 mph - N/A   Clear
1:15 AM 48.4 °F 20.5 °F 33% 30.01 in 10.0 mi SSW 4.6 mph - N/A   Clear
1:35 AM 47.3 °F 20.5 °F 35% 30.01 in 10.0 mi South 3.5 mph - N/A   Clear
1:55 AM 49.1 °F 25.0 °F 39% 30.01 in 10.0 mi SW 5.8 mph - N/A   Clear
2:15 AM 47.3 °F 25.2 °F 42% 30.00 in 10.0 mi WSW 3.5 mph - N/A   Clear
2:35 AM 46.9 °F 26.2 °F 44% 29.99 in 10.0 mi Calm Calm - N/A   Clear
2:55 AM 47.5 °F 32.2 °F 55% 29.98 in 10.0 mi SSW 5.8 mph - N/A   Clear
3:15 AM 48.6 °F 36.1 °F 62% 29.98 in 10.0 mi SSW 5.8 mph - N/A   Clear
3:35 AM 48.0 °F 37.9 °F 68% 29.97 in 10.0 mi South 4.6 mph - N/A   Clear
3:55 AM 47.8 °F 39.4 °F 72% 29.97 in 10.0 mi SSW 5.8 mph - N/A   Clear
4:15 AM 48.7 °F 40.8 °F 74% 29.97 in 10.0 mi South 6.9 mph - N/A   Clear
4:35 AM 49.1 °F 41.9 °F 76% 29.97 in 10.0 mi SSW 5.8 mph - N/A   Clear
4:55 AM 49.1 °F 42.1 °F 77% 29.97 in 10.0 mi WSW 4.6 mph - N/A   Clear
5:15 AM 48.4 °F 41.7 °F 78% 29.97 in 10.0 mi SW 5.8 mph - N/A   Clear
5:35 AM 48.6 °F 42.1 °F 78% 29.98 in 10.0 mi SW 5.8 mph - N/A   Clear
5:55 AM 48.7 °F 42.4 °F 79% 29.98 in 10.0 mi SW 5.8 mph - N/A   Clear
6:15 AM 48.9 °F 43.0 °F 80% 29.98 in 10.0 mi SW 8.1 mph - N/A   Clear
6:35 AM 48.2 °F 42.8 °F 82% 29.99 in 10.0 mi SW 5.8 mph - N/A   Clear
6:55 AM 48.6 °F 43.2 °F 82% 29.99 in 10.0 mi SW 6.9 mph - N/A   Scattered Clouds
7:15 AM 49.1 °F 43.7 °F 82% 29.99 in 10.0 mi SW 9.2 mph - N/A   Mostly Cloudy
7:35 AM 49.1 °F 43.7 °F 82% 29.99 in 10.0 mi SSW 6.9 mph - N/A   Overcast
7:55 AM 50.0 °F 44.6 °F 82% 29.99 in 10.0 mi SSW 5.8 mph - N/A   Mostly Cloudy
8:15 AM 51.3 °F 46.6 °F 84% 29.99 in 10.0 mi SSW 8.1 mph - N/A   Mostly Cloudy
8:35 AM 52.2 °F 47.3 °F 83% 30.00 in 10.0 mi SSW 9.2 mph - N/A   Mostly Cloudy
8:55 AM 53.2 °F 47.8 °F 82% 30.01 in 10.0 mi SSW 8.1 mph - N/A   Scattered Clouds
9:15 AM 54.7 °F 48.6 °F 80% 30.01 in 10.0 mi SSW 10.4 mph - N/A   Clear
9:35 AM 55.2 °F 48.2 °F 77% 30.01 in 10.0 mi SSW 11.5 mph - N/A   Clear
9:55 AM 56.3 °F 48.7 °F 76% 30.01 in 10.0 mi SSW 10.4 mph - N/A   Clear
10:15 AM 58.6 °F 49.5 °F 72% 30.01 in 10.0 mi SW 11.5 mph - N/A   Clear
10:35 AM 59.4 °F 49.6 °F 70% 30.00 in 10.0 mi SSW 13.8 mph 18.4 mph N/A   Clear
10:55 AM 60.4 °F 50.0 °F 68% 30.00 in 10.0 mi SW 12.7 mph - N/A   Clear
11:15 AM 61.3 °F 49.3 °F 65% 29.99 in 10.0 mi SW 15.0 mph - N/A   Clear
11:35 AM 63.7 °F 49.5 °F 60% 29.99 in 10.0 mi SW 15.0 mph 20.7 mph N/A   Clear
11:55 AM 63.3 °F 49.6 °F 61% 29.98 in 10.0 mi SW 13.8 mph - N/A   Clear
12:15 PM 64.4 °F 49.8 °F 59% 29.97 in 10.0 mi South 12.7 mph - N/A   Clear
12:35 PM 66.0 °F 50.4 °F 57% 29.96 in 10.0 mi South 15.0 mph - N/A   Clear
12:55 PM 66.6 °F 50.5 °F 56% 29.95 in 10.0 mi South 17.3 mph 20.7 mph N/A   Clear
1:15 PM 66.7 °F 50.5 °F 56% 29.94 in 10.0 mi South 13.8 mph - N/A   Clear
1:35 PM 67.3 °F 50.0 °F 54% 29.94 in 10.0 mi SSW 11.5 mph 19.6 mph N/A   Clear
1:55 PM 68.0 °F 50.9 °F 54% 29.93 in 10.0 mi SW 12.7 mph - N/A   Clear
2:15 PM 67.8 °F 51.1 °F 55% 29.91 in 10.0 mi SSW 11.5 mph 21.9 mph N/A   Clear
2:35 PM 68.5 °F 50.9 °F 53% 29.90 in 10.0 mi SSW 15.0 mph - N/A   Clear
2:55 PM 69.8 °F 50.9 °F 51% 29.89 in 10.0 mi SSW 16.1 mph 20.7 mph N/A   Clear
3:15 PM 70.2 °F 50.7 °F 50% 29.89 in 10.0 mi SSW 13.8 mph 21.9 mph N/A   Clear
3:35 PM 70.5 °F 50.0 °F 48% 29.88 in 10.0 mi SW 15.0 mph - N/A   Clear
3:55 PM 70.9 °F 49.8 °F 47% 29.88 in 10.0 mi South 12.7 mph 19.6 mph N/A   Clear
4:15 PM 71.4 °F 50.2 °F 47% 29.87 in 10.0 mi South 11.5 mph - N/A   Clear
4:35 PM 70.7 °F 50.9 °F 49% 29.87 in 10.0 mi South 16.1 mph - N/A   Clear
4:55 PM 70.0 °F 51.6 °F 52% 29.87 in 10.0 mi SSW 12.7 mph - N/A   Clear
5:15 PM 70.2 °F 52.2 °F 53% 29.87 in 10.0 mi South 15.0 mph - N/A   Clear
5:35 PM 69.1 °F 52.2 °F 55% 29.87 in 10.0 mi South 13.8 mph - N/A   Clear
5:55 PM 67.5 °F 52.0 °F 58% 29.87 in 10.0 mi South 12.7 mph - N/A   Clear
6:15 PM 66.7 °F 53.2 °F 62% 29.87 in 10.0 mi South 9.2 mph - N/A   Clear
6:35 PM 65.7 °F 53.8 °F 65% 29.88 in 10.0 mi South 11.5 mph - N/A   Clear
6:55 PM 63.7 °F 53.6 °F 70% 29.89 in 10.0 mi South 6.9 mph - N/A   Clear
7:15 PM 62.8 °F 54.0 °F 73% 29.89 in 10.0 mi South 10.4 mph - N/A   Clear
7:35 PM 61.7 °F 54.1 °F 76% 29.90 in 10.0 mi South 10.4 mph - N/A   Scattered Clouds
7:55 PM 62.1 °F 54.5 °F 76% 29.90 in 10.0 mi South 8.1 mph 16.1 mph N/A   Mostly Cloudy
8:15 PM 62.8 °F 54.9 °F 75% 29.91 in 10.0 mi South 9.2 mph 18.4 mph N/A   Overcast
8:35 PM 63.0 °F 54.9 °F 75% 29.91 in 10.0 mi South 11.5 mph 16.1 mph N/A   Overcast
8:55 PM 63.1 °F 55.0 °F 75% 29.93 in 10.0 mi SSW 10.4 mph - N/A   Overcast
9:10 PM 63.3 °F 55.0 °F 74% 29.93 in 10.0 mi South 9.2 mph - N/A   Overcast
9:35 PM 63.1 °F 55.4 °F 76% 29.93 in 10.0 mi SSW 9.2 mph - N/A   Overcast
9:55 PM 62.6 °F 55.4 °F 77% 29.93 in 10.0 mi South 5.8 mph - N/A   Overcast
10:15 PM 61.7 °F 55.4 °F 80% 29.94 in 10.0 mi South 8.1 mph - N/A   Overcast
10:35 PM 61.7 °F 55.8 °F 81% 29.94 in 10.0 mi SSW 4.6 mph - N/A   Overcast
10:55 PM 61.5 °F 55.8 °F 81% 29.94 in 10.0 mi SSW 5.8 mph - N/A   Overcast
11:15 PM 60.8 °F 55.6 °F 83% 29.94 in 10.0 mi SSW 5.8 mph - N/A   Overcast
11:35 PM 60.8 °F 55.9 °F 84% 29.94 in 10.0 mi SSW 4.6 mph - N/A   Overcast
11:55 PM 61.0 °F 56.3 °F 85% 29.93 in 10.0 mi SSW 4.6 mph - N/A   Overcast